HS5BOG-13 Weather Reports


Display with metric or nautical units.
time (UTC)temp
F
wind
direction
speed
MPH
gust
MPH
rain 1hr
in
rain 24hr
in
rain mn
in
humidity
%
barometer
mb
20260504081552 93 0.0 0.0 0.00 0.00 0.00 38 988.9
20260504080546 93 0.0 0.0 0.00 0.00 0.00 41 989.1
20260504050406 89 0.0 0.0 0.00 0.00 0.00 46 992.4
20260504045400 89 0.0 0.0 0.00 0.00 0.00 45 992.7
20260504044355 89 0.0 0.0 0.00 0.00 0.00 49 992.7
20260504043349 89 0.0 0.0 0.00 0.00 0.00 50 992.9
20260504042343 89 0.0 0.0 0.00 0.00 0.00 51 993.0
20260504041338 89 0.0 0.0 0.00 0.00 0.00 50 993.1
20260504040332 88 0.0 0.0 0.00 0.00 0.00 51 993.2
20260504035327 88 0.0 0.0 0.00 0.00 0.00 52 993.3
20260504034321 88 0.0 0.0 0.00 0.00 0.00 53 993.5
20260504033316 88 0.0 0.0 0.00 0.00 0.00 53 993.6
20260504032310 87 0.0 0.0 0.00 0.00 0.00 54 993.6
20260504031305 87 0.0 0.0 0.00 0.00 0.00 53 993.8
20260504030303 87 0.0 0.0 0.00 0.00 0.00 53 993.8
20260504025252 87 0.0 0.0 0.00 0.00 0.00 54 993.9
20260504024246 87 0.0 0.0 0.00 0.00 0.00 53 994.0
20260504022231 87 0.0 0.0 0.00 0.00 0.00 56 994.1
20260504021226 87 0.0 0.0 0.00 0.00 0.00 56 994.1
20260504020220 86 0.0 0.0 0.00 0.00 0.00 57 994.1
20260504015215 86 0.0 0.0 0.00 0.00 0.00 59 994.0
20260504014209 86 0.0 0.0 0.00 0.00 0.00 58 993.9
20260504013200 86 0.0 0.0 0.00 0.00 0.00 61 993.8
20260504012155 86 0.0 0.0 0.00 0.00 0.00 62 993.8
20260504011149 86 0.0 0.0 0.00 0.00 0.00 63 993.7
20260504010143 85 0.0 0.0 0.00 0.00 0.00 64 993.6
20260504005138 85 0.0 0.0 0.00 0.00 0.00 63 993.4
20260504004132 85 0.0 0.0 0.00 0.00 0.00 63 993.3
20260504003127 85 0.0 0.0 0.00 0.00 0.00 61 993.1
20260504002121 84 0.0 0.0 0.00 0.00 0.00 61 993.0
20260504001116 84 0.0 0.0 0.00 0.00 0.00 59 993.1
20260504000110 84 0.0 0.0 0.00 0.00 0.00 57 992.8
20260503235104 84 0.0 0.0 0.00 0.00 0.00 60 992.8
20260503234059 84 0.0 0.0 0.00 0.00 0.00 58 992.8
20260503233053 84 0.0 0.0 0.00 0.00 0.00 58 992.7
20260503232048 84 0.0 0.0 0.00 0.00 0.00 58 992.7
20260503231042 84 0.0 0.0 0.00 0.00 0.00 60 992.4
20260503230036 85 0.0 0.0 0.00 0.00 0.00 59 992.3
20260503225031 84 0.0 0.0 0.00 0.00 0.00 58 992.2
20260503224025 85 0.0 0.0 0.00 0.00 0.00 60 992.2
20260503223020 85 0.0 0.0 0.00 0.00 0.00 58 992.1
20260503222014 85 0.0 0.0 0.00 0.00 0.00 59 991.8
20260503221009 85 0.0 0.0 0.00 0.00 0.00 58 991.5
20260503220003 85 0.0 0.0 0.00 0.00 0.00 58 991.6
20260503214917 85 0.0 0.0 0.00 0.00 0.00 57 991.3
20260503213911 85 0.0 0.0 0.00 0.00 0.00 57 991.2
20260503212906 85 0.0 0.0 0.00 0.00 0.00 55 991.1
20260503211700 85 0.0 0.0 0.00 0.00 0.00 55 990.8
20260503210654 85 0.0 0.0 0.00 0.00 0.00 53 990.8
20260503205649 86 0.0 0.0 0.00 0.00 0.00 54 990.8
20260503204643 86 0.0 0.0 0.00 0.00 0.00 54 990.8
20260503203637 86 0.0 0.0 0.00 0.00 0.00 52 990.9
20260503202632 86 0.0 0.0 0.00 0.00 0.00 52 990.8
20260503201626 85 0.0 0.0 0.00 0.00 0.00 51 990.7
20260503200621 86 0.0 0.0 0.00 0.00 0.00 50 990.7
20260503195615 87 0.0 0.0 0.00 0.00 0.00 50 990.8
20260503194610 86 0.0 0.0 0.00 0.00 0.00 48 990.8
20260503193604 87 0.0 0.0 0.00 0.00 0.00 48 990.9
20260503192559 87 0.0 0.0 0.00 0.00 0.00 49 990.9
20260503191553 87 0.0 0.0 0.00 0.00 0.00 49 990.9
20260503190547 87 0.0 0.0 0.00 0.00 0.00 50 991.0
20260503185542 87 0.0 0.0 0.00 0.00 0.00 48 990.9
20260503184536 87 0.0 0.0 0.00 0.00 0.00 47 991.1
20260503183531 87 0.0 0.0 0.00 0.00 0.00 46 991.0
20260503182525 87 0.0 0.0 0.00 0.00 0.00 46 991.3
20260503181519 87 0.0 0.0 0.00 0.00 0.00 45 991.4
20260503180514 88 0.0 0.0 0.00 0.00 0.00 42 991.4
20260503175508 88 0.0 0.0 0.00 0.00 0.00 43 991.3
20260503174503 88 0.0 0.0 0.00 0.00 0.00 41 991.2
20260503173457 88 0.0 0.0 0.00 0.00 0.00 41 991.2
20260503172451 88 0.0 0.0 0.00 0.00 0.00 41 991.2
20260503171446 89 0.0 0.0 0.00 0.00 0.00 41 991.2
20260503170440 89 0.0 0.0 0.00 0.00 0.00 41 991.2
20260503150333 90 0.0 0.0 0.00 0.00 0.00 38 990.7
20260503140300 91 0.0 0.0 0.00 0.00 0.00 40 989.8
20260503131232 92 0.0 0.0 0.00 0.00 0.00 37 988.8
20260503130226 92 0.0 0.0 0.00 0.00 0.00 37 988.6
20260503120153 92 0.0 0.0 0.00 0.00 0.00 31 987.5
20260503110119 93 0.0 0.0 0.00 0.00 0.00 30 986.7